Mohamed Al Menhali

Chefscout - Al Jazira
4 Apr 2028
Dienstag
Verarbeitung

Persönlichkeit

Anpassungsfähigkeit (5) Ehrgeiz (14) Kontroverse (16) Loyalität (17) Druck (8) Professionalität (12) Fairness (15) Temperament (2)

Profil

Trainerstil Demokratisch
Lizenz Nationale B
Entschlossenheit 12
Menschenführung 6
Motivation 9
Disziplin 12
Arbeitszufriedenheit
100%
Ermüdung
0%
Rolle Chefscout
Gehalt 75.1K p/W
Vertrag 14.03.2030

Leistung

Verhalten Gut
Trainingseffektivität
52%
Spielerentwicklung
30%
Verletzungsprävention
65%
Taktische Umsetzung
60%

Aktuell beobachtet

123
Spieler Verein Status Fähigkeit Vertrauen Beobachtet Zuletzt beobachtet Letzte Stimme
Jherson Mosquera Newell's Old Boys Aktiv 120 / 115 40% 2 31.01.2028 -
Christoph Klarer Birmingham Aktiv 143 / 133 40% 1 31.01.2028 -
Prosper Obah Shakhtar Aktiv 134 / 137 40% 2 30.01.2028 -
Lucas Ríos Persepolis Aktiv 127 / 118 40% 1 30.01.2028 -
Ignacio Russo Tigre Aktiv 118 / 123 40% 3 29.01.2028 -
Everton Bala Levski Aktiv 133 / 131 40% 2 27.01.2028 -
Zakaria Hawsawi Al-Ra'ed Aktiv 125 / 121 40% 3 27.01.2028 -
Leandro Lozano Boca Juniors Aktiv 137 / 111 40% 1 27.01.2028 -
Matheus Davó Maccabi Netanya Aktiv 137 / 114 40% 1 27.01.2028 -
Ayrton Costa Boca Juniors Aktiv 147 / 127 40% 2 25.01.2028 -
Tobías Leiva Estudiantes Aktiv 132 / 105 40% 1 25.01.2028 -
Oscar Salomón Newell's Old Boys Aktiv 141 / 133 40% 2 24.01.2028 -
Tomás Escalante Plaza Colonia Aktiv 111 / 137 40% 1 24.01.2028 -
Ethan Pye Stockport County Aktiv 123 / 123 40% 1 23.01.2028 -
Kamogelo Sebelebele Orlando Pirates Aktiv 108 / 121 40% 1 23.01.2028 -
Marwan Ateya Al Ahly Aktiv 133 / 122 40% 1 22.01.2028 -
Franco Ibarra Rosario Central Aktiv 131 / 137 40% 1 22.01.2028 -
Timur Suleimanov Rostov Aktiv 135 / 133 40% 1 21.01.2028 -
Ola Brynhildsen Bodo/Glimt Aktiv 115 / 117 40% 1 21.01.2028 -
Pedro Souto Temperley Aktiv 125 / 111 40% 1 21.01.2028 -
Nasser Al-Dawsari Al-Hilal Aktiv 136 / 129 40% 1 21.01.2028 -
Iván Tapia Barracas Central Aktiv 114 / 116 40% 2 20.01.2028 -
Feras Al-Brikan Al-Nassr Aktiv 124 / 126 40% 1 19.01.2028 -
Yegor Golenkov Dinamo Makhachkala Aktiv 126 / 110 40% 1 19.01.2028 -
Imrân Louza Watford Aktiv 142 / 143 40% 2 16.01.2028 -
Luciano Juba Bahia Aktiv 130 / 119 40% 1 16.01.2028 -
Agustín Dattola Almirante Brown Aktiv 101 / 120 40% 1 15.01.2028 -
Juan Yangali San Telmo Aktiv 131 / 125 40% 1 14.01.2028 -
Tomás Porra Barracas Central Aktiv 115 / 107 40% 1 13.01.2028 -
Guillermo Enrique Huracán Aktiv 130 / 122 40% 1 13.01.2028 -
Chico Banza Zamalek Aktiv 134 / 126 40% 2 12.01.2028 -
Nicolás Paz San Martín SJ Aktiv 131 / 120 40% 1 12.01.2028 -
Mohamed Ali Ben Romdhane Al Ahly Aktiv 143 / 146 40% 1 10.01.2028 -
Felipe Peña Biafore Lanús Aktiv 118 / 134 40% 1 09.01.2028 -
Vicente Poggi Godoy Cruz Aktiv 127 / 130 40% 2 08.01.2028 -
Juan Camilo Pérez Carabobo Aktiv 110 / 123 40% 1 08.01.2028 -
Rodrigo Chagas Juventud Aktiv 112 / 129 40% 1 07.01.2028 -
Toni Fruk HNK Rijeka Aktiv 149 / 125 40% 1 07.01.2028 -
Jalal Abdullai Molde Aktiv 114 / 131 40% 1 07.01.2028 -
Emam Ashour Al Ahly Aktiv 134 / 155 40% 1 05.01.2028 -
Fernando Martínez Central Córdoba SdE Aktiv 129 / 118 40% 1 05.01.2028 -
Ramiro Ruiz Rodríguez Atlético Tucumán Aktiv 130 / 133 40% 3 02.01.2028 -
Lucas Souto Defensa y Justicia Abgelehnt 135 / 124 40% 1 02.01.2028 Mehr Infos nötig
Morgan Manyama SuperSport United Abgelehnt 112 / 119 66% 1 01.01.2028 Ablehnen
Hamdan Ismail Al Shaab Abgelehnt 112 / 116 68% 1 01.01.2028 Ablehnen
Soufiane Rahimi Talleres Abgelehnt 137 / 137 70% 1 01.01.2028 Ablehnen
Kévin Denkey FC Cincinnati Aktiv 138 / 126 40% 3 31.08.2027 -
Stanislav Ivanov Arda Aktiv 114 / 131 40% 1 31.08.2027 -
Emmanuel Sabbi Vancouver Whitecaps Abgelehnt 136 / 125 40% 1 30.08.2027 Mehr Infos nötig
Juan Mosquera Portland Timbers Abgelehnt 138 / 141 40% 1 30.08.2027 Mehr Infos nötig
Joaquín García Vélez Abgelehnt 134 / 114 40% 1 30.08.2027 Mehr Infos nötig
Brandon Vázquez Austin FC Aktiv 114 / 118 40% 1 28.08.2027 -
Alonso Martínez New York City Aktiv 109 / 119 40% 2 27.08.2027 -
Tai Baribo DC United Aktiv 132 / 114 40% 1 27.08.2027 -
Agustín Anello Spartak Moscow Aktiv 138 / 142 40% 1 25.08.2027 -
Mehdi Ghayedi Independiente Aktiv 121 / 128 40% 2 24.08.2027 -
Dávid Ďuriš Rosenborg Aktiv 133 / 129 40% 1 18.08.2027 -
Leonardo Candellone Juve Stabia Aktiv 132 / 115 40% 1 18.08.2027 -
Facundo Kruspzky Al Wahda Aktiv 127 / 133 40% 3 16.08.2027 -
Husain Norchayev Navbahor Aktiv 107 / 131 40% 1 16.08.2027 -
Walid Cheddira Avellino Aktiv 121 / 131 40% 2 15.08.2027 -
Renato Júnior Al Wasl Aktiv 134 / 126 40% 2 15.08.2027 -
Santiago Rodríguez Gimnasia y Esgrima Aktiv 107 / 130 40% 1 14.08.2027 -
Uriel Antuna Athletic Bilbao Aktiv 144 / 144 40% 1 13.08.2027 -
Ali Youssef Apollon Aktiv 135 / 116 40% 1 09.08.2027 -
Ion Nicolăescu Maccabi Tel Aviv Aktiv 121 / 135 40% 1 07.08.2027 -
Joe Rankin-Costello Charlton Athletic Aktiv 131 / 119 40% 4 02.08.2027 -
Archie Collins Peterborough United Aktiv 123 / 112 40% 1 31.07.2027 -
Musab Al-Juwayr Al-Qadisiyah Aktiv 128 / 142 40% 1 31.07.2027 -
Alexis Cuello San Lorenzo Aktiv 115 / 127 40% 1 31.07.2027 -
Mohanad Ali Dibba Aktiv 124 / 106 40% 1 31.07.2027 -
Nahuel Furtado Wanderers Aktiv 137 / 118 40% 2 29.07.2027 -
Shandon Baptiste Luton Town Aktiv 120 / 118 40% 3 28.07.2027 -
Oumar Gonzalez Al-Ra'ed Aktiv 123 / 131 40% 2 28.07.2027 -
Riccardo Marchizza Frosinone Aktiv 132 / 129 40% 3 27.07.2027 -
Akin Famewo Bolton Wanderers Aktiv 115 / 116 40% 1 27.07.2027 -
Marco Sala Avellino Aktiv 121 / 125 40% 2 26.07.2027 -
Idris El Mizouni Leyton Orient Aktiv 121 / 122 40% 1 26.07.2027 -
Ali Majrashi Al-Ahli Aktiv 130 / 134 40% 2 25.07.2027 -
Andrea Giorgini Südtirol Aktiv 130 / 135 40% 1 24.07.2027 -
Luther Lorch Free State Stars Aktiv 119 / 139 40% 1 23.07.2027 -
Leighton Clarkson Blackpool Aktiv 115 / 124 40% 2 21.07.2027 -
Hugo Moura Al-Fayha Aktiv 128 / 118 40% 2 21.07.2027 -
Cesare Casadei Torino Aktiv 136 / 134 40% 1 20.07.2027 -
Siaka Sidibé Al Wasl Aktiv 126 / 116 40% 1 19.07.2027 -
Morlaye Sylla Damac Aktiv 135 / 128 40% 4 17.07.2027 -
Kane Wilson Milton Keynes Dons Aktiv 127 / 120 40% 1 17.07.2027 -
Naoufel Khacef CR Belouizdad Aktiv 102 / 106 40% 1 16.07.2027 -
Matías Palacios Al Ain Aktiv 138 / 146 40% 3 15.07.2027 -
Michele Šego Hajduk Split Aktiv 133 / 118 40% 1 13.07.2027 -
Alessandro Sersanti Modena Aktiv 132 / 122 40% 1 13.07.2027 -
Gianluca Busio Venezia Aktiv 134 / 134 40% 1 12.07.2027 -
Demba Thiam Monza Aktiv 126 / 118 40% 1 12.07.2027 -
Merih Demiral Al-Ahli Aktiv 151 / 134 40% 1 10.07.2027 -
Bali Mumba Huddersfield Town Aktiv 118 / 121 40% 2 06.07.2027 -
Giuseppe Di Serio Spezia Aktiv 126 / 113 40% 2 05.07.2027 -
Daniel Boateng São Paulo Abgelehnt 116 / 116 67% 1 05.07.2027 Ablehnen
Ross McCrorie Bristol City Aktiv 134 / 137 40% 3 04.07.2027 -
Alfie Devine Preston Aktiv 130 / 135 40% 2 02.07.2027 -
Ryan Trevitt AFC Wimbledon Aktiv 109 / 113 40% 2 01.07.2027 -
Ousmane Camara Sharjah Aktiv 113 / 129 40% 1 01.07.2027 -
Gennaro Borrelli Cagliari Aktiv 126 / 129 40% 1 26.06.2027 -
Egas Cacintura Akhmat Grozny Aktiv 135 / 122 40% 1 23.06.2027 -
Jérémy Le Douaron Palermo Aktiv 122 / 126 40% 1 23.06.2027 -
Simone Giordano Juve Stabia Aktiv 118 / 109 40% 2 21.06.2027 -
Dardan Shabanhaxhaj Rubin Aktiv 130 / 119 40% 1 20.06.2027 -
Mirko Topić Norwich City Aktiv 121 / 116 40% 1 17.06.2027 -
Aaron Morley Wycombe Wanderers Aktiv 126 / 125 40% 1 17.06.2027 -
Rahid Guseynov Universitario Abgelehnt 113 / 114 67% 1 14.06.2027 Ablehnen
Willem Geubbels Lecce Aktiv 139 / 138 40% 1 10.06.2027 -
Marouan Azarkan Al Nasr Aktiv 118 / 117 40% 1 07.06.2027 -
Romano Floriani Mussolini Avellino Aktiv 133 / 117 40% 1 05.06.2027 -
Sam Bell Bristol City Aktiv 122 / 112 40% 1 03.06.2027 -
Karim Benzema Abgelehnt 148 / 148 66% 1 01.06.2027 Ablehnen
Drake Callender Minnesota United FC Aktiv 142 / 128 40% 1 01.06.2027 -
Ahmed Hamdi Ittihad Aktiv 116 / 111 40% 1 26.08.2026 -
Alexis Steimbach Gimnasia La Plata Aktiv 114 / 111 40% 1 25.08.2026 -
Regan Slater Hull City Aktiv 109 / 117 40% 1 24.08.2026 -
Tobías Bovone Deportivo Pereira Aktiv 99 / 97 40% 1 24.08.2026 -
Dhari Al-Anazi Al-Shabab Aktiv 120 / 108 40% 1 05.08.2026 -
Khaled Ebraheim Sharjah Aktiv 109 / 128 40% 1 05.08.2026 -
Mohamed Réda Halaïmia MC Alger Aktiv 100 / 95 40% 1 01.08.2026 -
Antonio Blanco Alavés Aktiv 150 / 134 40% 1 01.08.2026 -